Wind_Speed
21 21 22 22 22 22 22 22 23 23 23 23 22 22 22 22 22 22 23 23 24 24 24 24 25 25 25 25 25 25 24 24 24 24 23 23 23 22 22 22 22 21 21 21 22 22 23 23 24 24 24 23 23 23 23 23 23 23 22 22 22 22 21 21 21 21 21 21 20 20 19 19 19 20 20 20 20 22 24 27 29 32 33 34 35 36
21 21 21 22 22 22 22 22 23 23 24 24 24 24 23 23 23 23 23 23 24 24 24 25 25 25 25 25 25 25 24 24 24 24 24 24 23 23 23 22 22 22 22 22 22 22 22 23 23 23 23 23 23 23 23 23 23 23 22 22 22 21 21 21 21 21 21 20 20 20 20 20 20 21 21 21 22 23 25 28 31 32 33 34 34 34
21 21 21 22 22 22 22 23 23 24 24 24 25 25 25 24 24 24 24 24 24 24 25 25 25 25 25 25 25 24 24 24 25 25 24 24 24 24 23 23 23 22 22 22 22 22 22 22 22 23 23 23 23 23 23 23 23 23 23 22 22 21 21 20 20 20 20 20 20 20 20 20 20 21 22 22 22 22 24 27 30 32 33 33 33 32
22 22 22 22 22 22 22 23 24 24 24 24 25 25 25 25 25 25 25 25 25 25 25 25 25 25 25 25 25 25 25 25 25 25 25 25 25 24 24 24 23 23 23 23 23 23 23 23 23 22 22 22 22 22 22 23 23 23 23 23 22 22 21 21 20 20 20 20 20 20 19 19 19 20 21 22 22 22 23 24 27 29 30 31 31 31
23 23 23 23 23 22 23 23 23 24 24 24 25 25 25 26 26 26 26 26 26 26 26 26 26 26 26 25 25 25 25 25 25 25 25 25 25 25 25 24 24 24 23 23 23 23 23 23 23 23 23 22 22 22 22 22 23 23 23 23 23 22 22 21 20 20 19 19 20 20 19 19 18 18 19 20 21 22 22 23 24 26 27 28 29 30
23 23 23 23 23 23 23 23 24 24 25 25 25 25 26 26 27 27 27 27 27 27 27 27 27 26 26 26 26 26 26 26 26 26 26 26 25 25 25 25 24 24 24 24 24 24 24 24 24 23 23 23 22 22 22 22 23 23 23 23 23 22 22 21 21 20 20 19 19 20 20 19 18 18 18 18 19 20 21 22 22 23 24 25 27 28
23 23 23 23 23 23 23 23 23 24 25 25 26 26 26 27 27 28 28 28 29 28 28 28 27 27 27 27 27 27 27 27 27 27 26 26 26 25 25 25 25 25 25 24 24 24 24 24 24 24 24 23 23 22 22 22 22 23 23 23 23 22 22 21 21 21 21 20 20 19 19 20 20 19 18 17 17 18 19 20 21 21 22 23 25 26
23 23 23 23 23 23 23 23 23 24 24 26 27 27 27 28 28 28 28 28 29 29 29 29 28 28 29 29 29 29 28 28 28 28 27 27 26 26 26 25 25 25 25 25 25 24 24 24 24 24 24 24 24 23 23 23 23 23 23 23 23 23 22 22 21 21 21 21 21 20 20 19 20 20 19 18 17 16 17 18 18 19 20 21 23 25
22 22 23 23 23 23 23 23 23 23 24 25 26 27 28 29 29 29 28 29 29 30 31 31 31 30 30 31 31 31 30 30 30 30 29 29 28 27 27 26 26 26 25 25 25 25 25 24 24 24 24 24 24 24 24 24 23 23 23 23 23 23 23 22 22 21 21 21 21 21 21 20 20 20 20 19 18 17 16 15 16 17 18 20 21 23
21 21 21 22 22 22 22 23 23 23 23 23 24 25 27 28 29 30 30 30 30 31 32 32 33 33 33 33 33 33 32 32 31 31 30 30 29 29 28 28 27 26 26 25 25 25 25 25 24 24 24 25 25 25 25 25 24 24 24 24 24 24 23 23 22 22 22 22 22 22 22 22 21 21 20 20 19 18 17 15 14 15 16 17 19 21
20 20 20 20 20 20 20 21 22 22 22 23 23 24 24 26 28 30 31 32 32 33 33 33 34 34 35 35 35 35 34 34 33 32 32 31 30 30 29 28 28 27 27 26 26 25 25 25 24 24 24 25 25 25 26 26 26 25 25 25 25 25 25 24 24 23 23 22 22 22 23 23 23 22 21 20 20 19 19 17 15 14 14 15 17 19
19 19 19 19 19 19 19 20 20 21 22 23 24 25 26 26 28 29 31 32 33 34 34 34 34 34 35 36 36 36 36 36 36 35 34 33 32 32 31 30 29 29 28 27 26 26 25 24 24 24 24 25 25 25 26 26 27 27 27 27 27 27 27 26 26 25 24 23 23 22 22 23 23 23 22 21 20 20 19 18 17 15 14 14 14 16
18 18 18 18 18 18 19 20 20 21 22 23 25 26 27 27 28 28 29 30 32 33 34 35 35 35 35 36 36 37 37 37 37 37 36 36 35 35 34 33 32 31 31 29 28 27 26 25 25 24 24 24 25 25 26 26 27 27 28 28 28 28 28 28 28 27 26 25 23 23 22 22 22 23 23 22 22 21 20 19 18 17 16 14 14 14
17 17 17 17 17 18 18 19 20 21 22 23 23 24 26 27 27 28 29 30 31 32 34 34 35 35 35 36 36 37 38 38 39 38 38 37 37 37 36 36 35 34 33 32 31 30 29 28 26 25 24 24 24 25 25 26 27 28 29 29 30 30 30 30 29 29 27 26 25 24 23 22 22 22 22 23 23 22 21 20 19 18 17 16 15 14
16 17 17 17 17 17 18 19 20 20 21 22 22 23 25 26 27 28 29 30 32 33 34 35 36 36 36 35 36 37 38 39 40 40 40 39 38 38 38 37 37 36 35 34 33 32 31 30 29 27 26 25 24 24 25 25 26 28 29 30 30 31 31 31 31 30 29 28 27 26 24 23 23 22 22 23 23 23 23 22 21 20 19 18 17 15
16 16 17 17 18 18 18 19 19 20 21 22 22 23 24 26 27 28 29 30 32 33 35 36 37 38 38 36 36 37 38 40 41 41 42 41 40 39 39 39 38 37 36 35 35 34 33 32 31 29 28 26 25 24 24 25 26 27 28 29 30 31 32 32 32 31 30 29 28 27 27 26 25 24 23 23 23 23 24 23 23 22 21 19 18 17
16 16 17 18 18 18 18 19 19 20 21 22 23 24 24 25 26 27 28 29 31 32 34 35 37 39 40 39 38 37 38 40 41 42 43 42 42 41 40 40 40 39 38 37 36 35 35 34 33 31 30 28 27 25 25 25 25 26 27 28 30 31 32 32 33 32 32 31 30 29 29 28 27 27 26 25 24 24 24 24 24 24 23 22 21 19
16 16 17 18 19 19 20 20 20 21 22 23 24 25 25 26 26 27 28 29 30 31 32 34 35 36 39 41 40 39 38 39 41 42 43 43 43 42 41 41 41 40 40 38 37 36 36 35 34 33 32 30 28 27 26 25 25 25 26 27 29 30 31 32 33 33 32 32 31 31 30 30 29 29 28 27 26 26 25 25 25 25 25 24 23 22
17 17 17 18 20 20 21 21 21 22 23 24 25 26 27 27 27 27 28 28 29 30 31 33 34 35 37 39 40 39 38 39 40 42 44 44 44 43 42 42 42 42 41 40 39 37 36 36 35 34 33 31 30 29 27 26 25 25 25 26 27 29 30 32 33 33 33 33 32 32 31 31 31 30 30 29 28 27 26 26 25 25 26 26 25 24
17 17 18 19 20 21 22 21 22 22 23 24 25 26 27 28 28 29 29 29 30 30 31 32 34 35 37 38 39 39 38 39 40 42 43 45 45 44 43 43 43 43 42 41 40 38 37 37 36 35 34 33 32 30 29 27 26 25 25 25 26 28 29 31 32 33 34 34 33 32 32 32 32 31 30 30 29 28 27 27 26 26 26 26 26 26
18 18 18 19 20 21 22 22 22 22 23 24 25 26 27 29 29 30 30 30 31 32 32 33 34 35 36 37 39 39 38 38 39 40 43 45 46 45 44 43 43 44 43 42 41 39 38 38 37 36 35 34 33 32 31 29 28 26 25 25 26 26 28 29 31 32 34 34 34 33 33 32 32 32 31 30 29 28 28 27 26 26 26 26 27 27
19 19 19 19 20 21 22 22 22 22 22 23 25 26 27 28 29 30 31 31 32 33 33 34 34 35 35 36 37 38 37 36 36 37 41 43 46 46 44 43 43 44 44 43 41 40 39 38 38 37 36 35 34 33 32 31 30 28 27 26 26 26 26 28 29 31 33 34 34 34 33 33 32 32 32 31 31 29 28 27 27 26 26 26 26 27
19 19 19 19 20 21 22 22 22 22 22 23 24 25 26 27 28 29 30 31 32 33 33 34 35 35 35 35 36 36 35 34 34 35 36 39 43 45 44 43 43 43 43 43 42 41 41 40 39 39 38 36 35 34 34 33 32 31 29 28 27 26 26 26 28 29 31 33 34 35 34 34 33 32 32 32 31 31 30 29 28 27 27 27 27 27
19 19 19 20 20 21 21 22 22 22 23 23 24 25 25 26 27 28 29 30 31 32 33 34 35 35 34 34 35 34 34 32 32 32 33 35 39 42 43 42 42 42 43 43 42 42 42 42 41 40 39 38 37 36 35 35 34 33 32 30 28 27 26 26 26 28 29 31 33 34 35 34 33 32 32 32 32 32 31 30 29 28 28 27 27 27
19 20 20 20 20 21 21 22 22 23 23 23 24 25 25 26 27 28 28 29 30 31 32 33 34 35 35 35 35 34 33 32 30 29 30 32 37 40 40 39 39 40 42 43 44 44 44 44 43 42 41 40 39 37 36 36 35 35 34 32 30 29 27 26 26 27 28 29 31 33 34 34 34 33 32 32 32 33 33 32 31 31 30 29 28 28
20 20 21 21 21 21 22 22 22 22 23 23 24 24 25 26 27 28 28 28 29 29 31 32 33 34 35 35 34 33 32 31 30 28 28 30 33 36 36 36 36 37 40 43 44 44 44 45 45 44 43 42 40 39 38 37 37 36 35 34 32 31 29 28 27 27 27 28 29 31 33 34 34 33 33 32 32 33 33 34 33 33 32 31 30 29
20 21 21 21 21 22 22 22 22 22 22 23 23 24 24 25 27 28 28 28 28 28 30 31 32 34 34 34 33 32 32 31 29 27 26 27 29 31 32 33 33 35 38 41 43 43 43 44 44 44 43 42 41 40 40 39 39 38 37 36 34 33 32 31 30 29 28 28 29 30 31 33 34 34 33 33 33 33 34 34 34 34 34 33 32 31
21 21 22 22 22 22 22 22 22 22 22 22 23 23 24 25 26 27 27 27 28 28 29 30 31 32 33 33 32 32 32 30 28 25 24 24 25 27 29 31 32 33 35 38 41 41 40 40 40 40 39 39 39 40 40 41 41 41 40 38 36 35 34 34 33 31 30 29 29 30 31 32 33 33 33 33 33 33 34 34 35 35 35 35 34 33
22 22 23 23 23 23 23 23 23 23 23 23 23 23 24 25 25 26 27 27 27 28 29 29 30 31 32 32 33 33 32 28 25 23 22 24 25 27 29 30 31 31 32 35 38 39 37 34 32 32 33 35 36 38 40 42 43 43 42 41 39 38 37 36 35 34 32 31 30 30 30 31 32 33 33 34 34 34 34 34 34 35 36 36 36 35
23 23 23 23 23 24 24 24 24 24 24 24 24 24 24 25 25 26 26 26 26 27 28 28 29 29 30 31 32 32 30 27 24 23 23 25 26 27 28 30 29 29 30 32 34 35 34 31 29 28 29 32 35 38 41 43 44 44 44 43 42 40 39 38 37 36 34 33 32 31 31 31 31 32 33 34 35 34 34 34 34 34 35 36 37 36
24 24 24 24 24 24 24 25 25 25 24 24 24 24 24 24 24 25 25 25 25 25 26 27 28 28 28 28 29 28 28 28 27 25 25 26 26 26 27 28 29 29 29 29 30 31 33 33 32 30 30 32 36 39 41 42 43 44 44 44 44 42 41 39 38 37 36 35 34 33 32 31 31 32 33 34 35 35 34 33 33 33 34 35 36 37
25 26 26 25 25 25 25 25 25 25 25 25 25 24 24 24 24 24 24 24 24 24 25 26 26 26 26 27 27 28 29 30 30 28 26 26 27 27 27 28 29 30 30 29 29 30 31 33 35 34 33 33 35 37 39 40 41 42 43 43 43 42 41 40 39 39 39 38 37 36 34 33 32 33 34 35 35 35 34 33 32 32 33 34 35 36
27 27 27 27 27 27 26 26 26 26 26 26 25 25 24 24 23 23 23 23 23 23 24 25 25 26 26 27 28 29 30 31 30 28 27 27 29 30 31 31 32 33 34 32 31 30 31 33 35 36 35 33 33 34 35 36 37 39 40 41 41 41 41 40 40 41 41 41 41 40 38 36 34 34 34 34 35 35 34 33 32 31 31 32 33 35
28 28 28 28 28 28 27 27 27 27 26 26 26 25 24 24 23 23 23 22 23 23 23 24 24 25 26 27 29 30 31 31 30 28 28 29 31 33 34 34 35 35 36 35 33 33 33 35 35 35 35 35 33 32 32 32 34 35 35 36 37 38 40 41 42 42 43 43 43 42 40 38 36 35 34 34 34 34 34 34 33 31 30 30 31 32
29 29 29 28 28 28 28 27 27 27 27 26 26 25 25 24 24 23 23 23 23 23 23 24 24 25 25 27 29 31 32 31 30 28 28 29 31 34 35 36 37 37 36 36 36 35 35 36 36 36 36 36 35 33 31 30 30 30 30 31 33 36 39 41 42 42 42 42 41 41 40 39 37 36 34 33 33 34 34 34 33 32 31 29 29 29
29 29 29 28 28 28 28 27 27 27 27 26 26 25 25 25 25 24 24 24 24 24 24 25 25 25 26 27 28 30 32 31 30 29 29 30 31 33 36 37 38 38 37 38 38 37 37 37 38 37 36 35 35 34 31 29 28 28 30 31 34 37 40 40 40 39 39 39 39 39 39 38 38 37 36 35 34 34 34 34 34 33 32 30 29 28
30 29 29 28 28 27 27 27 27 27 27 27 27 26 26 26 26 26 26 26 26 26 26 26 26 26 27 27 29 30 31 31 31 30 30 31 33 34 37 39 40 40 40 40 39 38 38 37 37 36 34 32 31 32 32 31 30 31 32 34 36 37 38 37 36 35 36 37 37 38 38 38 39 39 38 37 36 35 35 35 34 33 32 31 30 29
29 29 28 28 27 27 27 27 27 27 27 27 28 28 28 28 28 28 27 27 27 27 27 27 28 28 28 29 30 31 32 32 32 32 32 33 34 36 38 41 42 42 41 40 39 37 36 36 35 34 33 32 32 32 32 32 33 34 35 35 35 35 35 34 33 34 35 36 36 36 36 37 38 38 38 38 37 36 36 35 35 34 33 33 32 31
29 28 28 28 27 27 28 28 28 28 28 28 29 29 29 29 28 28 28 28 28 28 28 28 29 29 29 30 31 32 32 32 33 33 33 34 35 37 39 40 41 40 38 36 34 32 32 32 32 33 33 33 34 35 35 34 34 34 35 35 35 33 32 30 31 33 35 36 36 35 35 35 35 36 36 37 36 36 36 36 35 34 34 33 33 33
28 29 29 28 28 28 28 29 29 29 29 29 29 29 29 29 29 29 29 28 29 29 29 29 30 30 30 31 31 31 32 32 33 33 33 34 35 36 36 36 36 35 33 31 30 29 29 30 31 33 33 34 36 37 36 35 35 34 33 33 33 32 31 31 32 35 36 36 36 35 34 33 33 34 34 34 35 35 35 35 35 34 33 32 32 33
29 29 29 29 28 28 29 29 29 29 29 29 30 30 30 29 29 29 29 29 29 29 30 30 31 31 32 31 31 31 32 32 32 33 33 33 34 33 33 32 32 31 30 30 31 31 31 31 32 34 35 36 37 37 37 36 34 33 33 33 33 34 34 35 36 37 37 37 36 35 34 33 33 32 33 33 33 33 34 34 34 34 33 32 31 31
30 30 30 29 29 29 29 28 28 29 29 29 30 30 30 30 30 30 30 31 31 31 30 31 32 33 33 33 32 32 31 32 32 32 33 33 33 32 32 31 31 30 31 32 33 33 33 33 33 35 37 37 37 37 37 36 34 33 32 33 34 37 38 39 38 37 36 36 36 35 34 33 33 32 32 32 32 32 32 32 32 33 33 33 32 31
30 30 30 30 29 29 29 29 29 29 29 29 30 30 30 29 29 30 31 31 32 32 32 32 33 33 34 34 34 33 32 31 31 32 32 32 32 32 32 32 32 32 32 32 33 34 34 35 36 38 38 37 35 34 35 35 35 34 35 35 36 36 37 38 37 36 35 35 34 33 32 32 31 31 31 30 31 31 30 30 30 31 32 33 34 33
31 31 31 30 30 29 29 29 29 28 29 29 30 30 30 29 29 30 31 32 32 33 33 32 33 33 34 35 35 34 32 31 31 31 31 32 32 32 33 33 33 32 32 32 33 35 36 38 39 39 37 35 33 33 34 35 36 36 37 37 36 35 35 35 35 35 34 33 32 31 30 30 30 30 30 30 30 30 29 29 29 30 32 33 34 35
32 32 31 31 30 30 30 29 29 28 28 29 29 30 30 30 29 30 31 31 32 32 32 32 31 32 33 34 35 35 34 33 32 31 31 31 32 32 33 33 32 32 32 33 34 36 38 39 39 38 35 33 32 34 36 36 37 38 39 38 36 35 35 35 34 33 32 33 32 31 30 29 29 30 31 31 31 30 29 29 30 31 32 33 34 35
33 33 32 31 31 30 30 30 29 29 29 29 29 29 30 30 30 30 30 31 31 31 32 31 31 31 33 34 35 35 36 35 34 33 32 32 32 32 32 32 32 32 33 34 35 36 36 37 37 35 33 33 34 36 38 38 39 39 40 38 36 35 35 34 33 32 32 33 32 31 30 29 30 31 32 33 32 32 31 31 32 33 34 34 35 35
34 33 33 32 31 31 31 30 30 30 30 31 31 30 30 30 30 30 31 31 31 32 32 32 31 32 33 34 34 34 34 35 35 35 34 33 33 32 32 32 33 34 34 35 35 35 35 34 34 33 33 34 36 38 39 38 38 39 39 37 35 34 34 35 34 33 33 33 32 32 30 30 31 32 33 33 33 33 34 34 35 36 36 36 36 35
34 33 33 32 32 31 31 31 31 31 32 32 32 32 32 31 31 31 31 31 31 30 30 30 30 30 31 31 32 31 31 32 34 35 35 35 35 34 34 34 35 35 36 36 36 35 35 35 34 33 33 33 35 37 39 39 38 37 36 35 34 33 34 35 35 34 33 32 32 31 31 31 32 33 34 34 34 35 35 36 38 39 40 39 38 36
33 33 33 32 32 32 32 32 31 32 32 33 33 33 33 33 32 31 31 30 29 29 29 29 29 29 30 31 31 31 31 32 33 34 35 36 37 36 36 36 37 37 37 37 37 37 37 36 36 35 33 33 33 35 37 37 37 36 35 34 33 33 34 35 35 34 32 32 32 32 32 32 33 33 34 34 35 35 36 36 38 41 42 41 40 37
33 33 33 32 32 32 32 32 32 32 32 32 32 32 33 32 32 31 30 30 30 29 29 30 30 30 31 31 32 32 32 32 33 35 36 37 37 37 37 37 37 36 37 37 36 36 35 35 35 34 33 32 32 33 34 34 34 33 33 33 33 33 33 34 34 33 32 32 32 32 32 32 32 32 32 33 34 35 35 35 37 40 41 41 40 38
34 33 33 33 33 33 33 33 32 32 32 32 32 31 31 31 30 30 30 30 30 30 30 30 30 31 32 32 32 32 32 33 34 35 36 36 36 35 36 35 34 34 33 33 33 32 30 30 31 32 33 33 32 31 30 30 29 30 30 32 33 33 33 33 33 32 32 32 32 31 31 30 31 31 31 32 32 33 34 35 36 37 38 38 39 39
Wind_Direction
320 320 320 320 321 323 324 326 327 326 325 324 324 325 326 327 328 329 330 331 332 333 334 336 337 338 338 338 338 339 339 340 341 341 341 341 341 341 340 341 340 341 340 340 340 340 341 342 342 343 342 342 341 341 341 341 341 342 342 341 339 337 336 335 335 334 333 332 329 326 322 316 308 298 288 276 265 256 250 247 247 248 251 254 256 257
318 318 319 319 320 321 323 325 326 327 326 326 325 326 326 326 327 327 327 329 331 332 333 334 335 336 336 336 336 337 338 339 340 340 340 340 340 340 340 339 339 339 338 338 337 337 338 338 340 341 341 342 341 340 340 339 339 339 340 341 341 340 337 335 333 332 331 330 329 327 325 321 314 306 296 284 272 261 253 249 248 249 251 254 257 262
318 317 318 318 320 321 323 325 326 327 327 327 326 326 326 326 326 326 327 328 329 330 332 333 333 334 334 334 335 336 337 337 338 339 339 339 339 339 339 338 338 337 337 336 336 335 335 335 336 337 339 340 341 341 340 339 337 337 338 339 340 341 340 337 334 331 329 328 327 326 325 322 319 312 304 294 283 272 262 256 253 252 253 256 259 263
318 318 319 319 320 321 323 325 326 326 325 325 325 325 325 325 325 326 327 328 328 329 330 331 332 332 332 333 333 334 335 336 337 338 338 338 338 338 338 337 337 336 336 335 334 334 333 333 333 333 335 337 339 340 340 339 338 337 336 337 338 339 340 339 337 333 329 326 325 324 323 322 319 315 310 303 294 283 274 266 260 256 255 256 259 264
317 319 319 320 321 321 323 324 325 324 323 323 323 324 324 324 325 325 325 326 327 327 328 329 330 331 332 332 332 333 334 335 336 336 337 337 337 337 337 337 336 336 335 335 334 333 332 331 331 330 331 333 335 338 340 340 339 337 336 335 336 337 339 340 339 336 331 327 323 322 321 320 318 315 312 307 301 293 283 275 268 262 257 256 258 262
316 318 319 320 321 322 323 324 324 324 322 321 321 322 323 324 324 324 325 325 326 326 327 328 329 330 331 331 331 332 333 334 335 335 335 335 336 336 336 336 336 335 335 334 333 332 332 331 330 329 329 329 331 333 337 339 339 338 336 335 335 335 336 338 338 337 334 330 325 321 319 318 316 314 312 309 305 300 293 285 276 269 262 257 256 258
314 316 318 319 320 321 322 324 325 325 324 323 322 321 322 322 323 324 325 326 326 325 325 325 326 328 329 330 330 331 332 333 334 334 334 334 334 334 335 335 335 335 334 334 333 332 331 331 330 329 328 327 327 329 332 336 337 337 336 335 334 334 334 335 335 335 335 333 329 324 319 315 314 312 311 309 307 304 300 294 287 278 270 262 257 255
312 314 315 317 319 320 321 323 326 327 327 327 325 324 322 322 322 323 324 325 325 324 324 323 324 326 328 329 330 331 332 332 333 333 332 332 332 333 333 334 334 334 334 334 333 333 332 331 330 328 327 326 325 326 328 331 334 335 335 335 335 334 334 333 333 333 333 332 331 328 323 317 313 311 310 310 308 306 303 300 295 288 279 271 263 257
311 313 314 317 319 321 322 323 325 327 329 330 330 328 327 324 322 321 321 322 324 325 325 325 325 325 327 328 329 330 331 332 333 333 332 332 332 332 332 333 333 333 334 334 333 333 332 331 330 329 327 326 325 325 326 328 330 332 333 334 334 335 334 334 333 332 331 331 331 329 326 322 317 313 311 309 308 307 306 303 299 293 286 279 271 263
309 311 313 315 318 321 323 324 325 327 330 331 331 330 330 328 326 323 322 322 323 325 326 327 327 327 326 327 328 329 330 331 331 331 331 331 331 331 332 332 332 333 333 334 334 333 332 331 330 329 328 327 325 325 325 326 327 329 331 331 333 334 335 335 334 333 331 330 330 329 328 326 324 320 316 312 309 307 306 304 301 296 290 284 277 269
308 309 311 314 317 319 322 323 325 326 328 328 327 327 329 331 332 331 328 326 325 325 326 327 328 328 328 327 327 328 329 330 329 329 329 330 330 330 330 330 331 332 333 333 333 333 332 331 330 329 328 327 326 325 325 325 326 328 329 329 331 332 334 336 336 335 333 332 330 329 328 327 327 325 322 318 313 309 306 305 302 298 293 287 281 274
307 309 311 313 316 319 320 322 323 325 327 328 328 329 331 334 335 335 333 331 329 328 327 326 327 327 328 328 328 327 328 329 329 329 328 328 328 328 328 329 330 331 332 332 333 333 332 331 330 330 329 328 327 326 325 325 326 327 327 328 329 331 333 335 336 337 336 334 332 329 328 326 326 326 325 322 318 313 307 304 302 299 295 289 283 277
306 307 309 312 315 318 320 322 324 326 329 331 333 333 334 334 335 335 333 331 330 329 328 326 325 325 326 327 328 328 329 329 328 327 327 327 327 328 328 329 330 331 331 332 332 332 332 331 330 329 329 328 327 326 325 325 325 326 327 327 328 329 331 333 335 336 337 336 334 331 328 325 324 324 324 324 322 319 313 308 303 299 296 291 285 279
304 305 308 310 314 318 321 324 326 329 332 334 334 333 332 333 333 332 330 329 329 329 328 326 324 324 325 326 327 328 329 329 327 326 325 326 327 328 329 329 329 330 331 331 332 332 332 331 330 329 329 328 327 326 325 325 325 325 325 326 326 327 329 330 332 334 335 335 334 332 329 326 324 322 322 322 322 322 320 315 309 302 297 292 287 282
303 306 308 311 315 319 322 325 327 329 331 332 332 331 330 330 330 330 330 329 329 328 327 325 323 322 323 325 327 329 329 329 327 326 324 324 325 327 328 328 328 328 329 330 331 331 331 330 330 329 329 329 328 327 326 324 324 323 323 324 325 326 327 328 329 331 332 333 333 332 331 328 326 323 321 320 320 320 321 320 316 310 302 296 290 285
304 307 310 313 315 318 322 324 326 328 328 329 329 328 328 328 329 329 329 329 329 328 328 327 325 323 322 323 325 328 329 329 327 325 324 323 324 325 327 327 327 327 327 328 329 330 330 329 329 329 329 329 328 327 326 324 322 321 321 321 322 323 324 326 326 327 329 330 331 331 330 329 328 326 323 320 318 317 318 318 318 316 311 304 296 289
305 308 311 313 315 318 320 323 324 326 326 326 326 326 326 326 327 328 328 328 327 327 327 327 327 325 324 323 324 327 329 329 327 324 323 322 322 324 325 326 326 326 326 327 328 328 328 328 328 328 328 328 327 326 325 323 321 320 318 318 319 320 321 322 323 324 325 327 328 329 329 329 328 327 326 323 320 317 315 315 315 315 314 310 304 296
305 308 311 313 315 317 319 321 323 325 325 325 324 324 324 325 325 326 325 325 325 325 325 325 324 324 323 323 324 326 328 328 326 323 321 320 320 322 323 324 324 324 324 325 326 326 327 326 326 326 326 326 326 325 324 322 320 319 317 316 316 316 317 318 319 320 321 324 326 327 328 328 328 327 327 325 323 320 317 314 312 311 311 311 308 303
305 308 311 313 314 315 317 320 322 324 324 323 323 322 322 323 323 323 323 323 323 322 322 322 321 321 321 321 322 324 326 326 324 322 320 319 319 320 322 323 323 322 322 322 323 324 324 324 323 323 324 324 324 323 323 321 320 318 316 315 314 313 314 314 315 316 317 320 322 325 326 327 327 327 326 326 324 323 320 316 313 310 308 308 307 305
304 307 309 311 312 313 314 318 320 322 322 321 321 320 320 320 321 321 320 321 321 320 320 319 319 319 319 319 320 322 325 324 323 321 320 318 318 319 320 321 321 321 320 320 321 322 322 322 321 321 321 322 322 322 322 321 319 318 316 314 313 312 311 312 312 312 313 315 318 321 324 326 326 326 326 325 324 323 321 319 316 312 309 306 305 304
301 304 307 308 309 309 311 315 317 319 319 318 318 317 317 318 319 319 319 319 319 319 318 317 317 317 317 317 319 321 323 324 323 321 319 317 316 317 319 320 320 319 318 319 319 320 320 320 320 320 320 320 321 321 321 320 319 318 316 315 313 311 310 309 309 310 310 311 314 317 320 323 325 326 326 325 324 323 322 320 318 315 311 307 304 302
297 300 303 304 304 305 308 311 313 315 315 315 314 314 315 316 316 316 317 317 317 316 316 315 314 315 315 315 317 319 321 322 321 319 318 316 315 315 317 318 318 318 317 317 318 318 318 318 318 318 318 319 319 320 320 319 318 318 316 315 313 311 309 308 307 307 307 308 309 312 315 319 322 324 325 325 324 323 322 320 318 316 313 309 305 302
292 295 298 299 300 302 304 306 309 310 311 311 311 312 313 313 313 313 313 314 314 313 313 313 313 313 312 313 314 316 317 318 317 317 315 312 312 314 316 317 317 317 316 316 317 317 317 317 317 317 317 317 318 318 318 318 318 317 317 315 314 311 309 307 306 305 305 305 306 308 310 314 317 321 323 325 325 324 323 321 319 316 313 310 307 303
288 291 293 295 297 298 300 302 305 307 308 309 310 311 311 312 311 310 310 310 311 310 310 310 310 309 309 309 311 312 313 314 315 314 312 310 310 312 315 317 317 317 316 316 317 317 317 316 316 316 316 316 316 317 316 316 317 317 317 316 315 313 311 308 306 304 303 302 303 304 306 309 312 316 320 323 324 324 324 322 320 317 314 311 308 305
286 288 290 292 294 296 298 300 303 305 307 308 309 310 310 309 308 308 308 308 308 307 307 306 305 305 306 308 309 310 311 313 313 312 311 309 309 311 314 316 317 316 315 315 316 316 317 316 315 315 315 315 316 316 315 316 316 317 317 317 317 316 314 311 308 305 303 301 301 301 302 305 308 312 316 320 322 323 323 322 321 319 316 312 309 306
286 288 289 291 293 295 297 299 301 303 305 306 307 307 307 306 305 305 304 305 306 306 305 304 304 305 307 308 309 310 311 312 312 312 311 310 309 310 312 315 316 315 314 315 316 316 317 316 316 315 316 316 316 316 316 316 316 317 318 318 318 317 316 314 311 308 304 302 301 300 301 302 305 308 313 317 320 322 322 322 321 319 317 314 311 308
285 287 289 291 292 294 295 297 298 300 302 303 303 304 304 303 303 303 303 305 306 306 305 305 306 306 307 308 308 309 310 311 311 312 312 311 308 307 309 312 313 313 313 314 315 316 317 316 316 316 317 317 317 317 317 316 317 317 317 317 317 317 317 316 314 311 307 305 303 302 302 302 303 306 310 314 318 320 321 321 320 319 318 316 314 311
284 286 288 289 291 292 293 295 296 298 299 300 301 301 301 302 302 302 303 306 306 306 305 306 307 307 308 308 307 307 308 309 311 313 313 310 305 302 305 309 311 312 313 314 314 315 315 315 316 317 317 317 317 317 316 316 316 316 316 316 316 316 317 316 315 313 310 308 306 305 304 303 304 305 308 312 316 318 320 320 319 319 318 317 316 314
284 285 287 288 290 291 292 293 295 296 298 299 300 300 300 301 301 302 303 305 305 305 305 305 306 307 307 307 307 307 307 308 311 312 311 307 302 301 305 308 310 312 314 314 314 314 312 312 313 314 315 315 314 314 314 314 314 315 315 315 315 315 316 316 315 313 312 310 309 308 306 305 305 305 307 311 314 316 318 319 319 319 318 317 316 315
284 285 286 287 289 290 292 293 294 296 297 298 298 299 299 299 299 300 301 302 303 304 304 304 305 305 306 307 308 307 306 307 308 308 308 305 302 302 306 308 309 311 313 314 314 313 311 309 309 310 310 311 310 310 311 312 313 314 314 314 315 315 315 315 315 313 312 312 311 310 309 308 307 307 308 310 312 314 316 318 319 319 318 316 315 314
285 286 287 288 289 291 292 293 294 295 296 296 297 297 297 297 297 298 299 300 301 302 302 303 303 303 305 307 307 305 303 303 305 306 307 305 303 303 306 307 307 307 308 310 311 311 309 308 307 307 308 308 308 308 309 311 312 313 313 314 315 315 316 315 315 314 313 313 313 312 311 310 309 309 309 310 311 312 314 316 318 318 317 315 313 312
288 289 290 291 291 292 293 294 295 295 296 296 296 295 295 295 295 295 296 297 298 298 299 300 300 301 302 303 302 300 299 301 304 307 308 306 303 301 302 303 302 303 303 304 304 304 304 304 305 307 307 307 307 308 309 310 311 312 313 314 314 315 315 315 314 314 313 314 314 313 312 311 310 310 310 309 309 310 311 314 316 317 316 314 312 310
291 291 292 293 294 294 295 295 296 296 296 296 295 295 294 294 294 293 293 293 294 294 296 297 298 298 299 299 298 297 297 300 304 307 308 305 302 300 301 301 300 301 302 303 302 300 299 299 302 305 306 305 305 306 307 308 309 310 312 313 313 313 313 313 313 313 313 313 313 313 312 311 310 309 308 307 307 307 309 312 314 315 315 313 310 309
292 292 293 294 295 295 295 296 296 296 296 296 295 295 294 294 293 292 291 290 290 291 292 292 294 296 297 297 297 296 296 299 302 305 305 303 301 301 301 301 301 302 303 303 302 301 299 298 300 302 304 304 303 303 303 305 307 309 310 311 310 310 309 310 310 311 312 312 312 311 310 310 309 308 307 306 305 306 307 310 312 313 312 311 309 307
292 292 293 294 294 295 295 295 295 295 295 295 295 295 294 293 292 290 289 288 288 287 287 288 290 291 293 294 295 295 295 297 300 302 302 301 301 301 301 300 300 301 302 301 301 301 300 299 299 300 301 302 302 301 301 303 305 306 306 305 303 303 304 307 309 310 310 311 310 310 310 310 310 309 308 307 306 306 306 308 310 310 310 308 306 305
291 292 292 293 294 294 294 294 294 293 293 293 294 293 293 292 290 289 288 287 286 286 285 286 286 287 288 289 291 292 293 295 297 298 299 299 299 298 298 297 298 299 299 299 299 299 299 298 298 299 299 299 300 301 302 303 304 303 300 297 296 299 303 307 309 310 311 311 311 311 311 312 312 311 311 309 308 307 306 306 307 308 307 306 304 302
291 291 292 293 293 293 293 293 292 292 292 293 293 292 291 290 289 288 287 287 286 285 285 285 285 285 285 286 287 289 290 292 294 296 297 297 296 295 294 295 296 297 297 297 297 297 297 297 297 298 298 297 297 300 302 304 303 300 297 296 298 302 307 310 312 312 312 312 312 312 312 313 312 312 311 310 309 307 305 304 304 305 305 304 303 301
289 290 291 292 292 293 293 293 293 293 294 294 293 292 291 290 289 289 288 288 287 286 285 285 285 285 286 286 287 288 290 292 294 295 296 295 294 293 293 294 295 296 296 296 296 296 295 295 296 297 298 298 298 299 301 303 302 301 300 302 306 309 311 314 315 314 313 311 311 311 311 311 310 310 309 309 308 307 305 304 303 303 303 303 302 300
290 292 293 294 295 295 296 296 296 296 296 295 294 293 292 291 290 290 290 289 289 288 287 286 286 287 287 288 289 290 292 293 294 295 295 294 293 293 293 294 295 296 296 296 295 295 295 295 295 296 297 299 300 300 301 302 302 303 306 309 310 310 310 311 311 310 309 310 311 311 310 308 308 307 307 307 308 308 307 306 305 304 304 304 303 301
293 294 295 296 298 298 299 298 298 298 297 295 294 293 292 292 291 291 290 290 289 288 288 288 289 289 289 289 289 290 291 292 293 293 293 293 293 293 294 295 295 295 295 294 293 293 294 296 297 298 298 298 299 300 301 301 303 305 307 308 306 305 305 305 304 304 306 309 311 311 309 308 306 306 306 307 308 309 309 309 308 307 306 307 306 305
294 295 296 297 298 298 298 298 298 297 296 295 294 293 292 292 292 292 291 290 289 289 289 290 291 290 289 288 288 288 289 289 290 291 291 291 292 292 293 293 293 293 293 293 293 293 295 297 299 300 300 299 300 300 300 301 303 306 306 304 302 302 302 302 302 303 307 310 312 311 310 309 308 308 307 308 307 307 308 309 309 309 308 308 308 308
292 293 294 296 297 297 296 296 295 295 294 293 293 292 292 293 293 293 293 293 292 292 292 292 293 293 292 289 287 286 286 287 288 289 289 289 289 290 290 290 289 290 292 293 295 296 298 299 300 299 299 300 301 301 301 302 303 304 302 300 300 301 302 302 303 305 308 310 311 311 311 311 311 311 310 309 307 306 306 306 308 309 310 310 310 308
290 291 293 294 294 294 295 295 294 294 294 294 293 293 293 293 294 294 295 295 294 294 294 294 294 294 293 290 288 286 286 286 286 287 287 287 288 288 287 287 288 290 293 296 297 297 299 299 299 298 300 301 301 300 299 300 301 300 298 297 298 299 299 300 302 305 307 307 307 308 310 311 312 311 311 309 306 305 305 305 305 307 309 310 310 310
289 291 291 292 292 293 294 294 294 295 295 295 294 293 293 293 293 293 293 293 293 293 294 294 295 294 293 292 291 290 288 287 287 286 287 287 287 288 288 287 289 291 294 296 296 296 297 297 297 297 299 301 301 299 296 295 295 294 294 294 295 295 295 298 302 305 306 306 305 307 309 311 312 312 311 309 307 307 306 306 306 306 308 309 310 311
289 290 290 291 292 293 293 294 295 295 294 292 291 291 291 291 291 291 290 290 291 292 293 294 295 294 293 292 293 293 292 291 290 289 288 288 288 288 288 289 291 293 294 294 294 294 295 295 295 296 297 296 294 290 289 289 290 291 292 294 296 297 297 299 302 304 305 306 307 309 311 313 313 313 311 310 311 311 310 309 308 308 308 309 310 311
288 289 289 290 291 291 292 293 294 294 292 291 290 289 289 290 289 289 288 288 289 290 291 291 291 290 289 289 291 293 294 294 294 293 292 290 289 289 290 290 291 293 294 293 293 293 293 293 294 295 294 291 287 284 284 286 289 291 294 296 298 299 301 302 303 305 307 309 310 311 313 314 313 310 308 308 310 311 310 309 308 309 310 311 311 310
287 287 288 289 289 290 291 292 293 293 292 291 291 291 290 290 290 289 288 288 288 288 289 289 287 286 286 287 289 290 292 294 295 296 296 295 293 292 291 291 291 292 293 294 295 295 294 294 294 294 293 290 288 287 288 289 291 294 296 298 300 300 301 301 303 306 309 310 310 310 311 310 307 304 302 304 306 307 307 307 308 309 310 311 310 309
286 286 287 288 289 289 290 291 292 292 292 292 293 293 293 292 292 291 290 289 288 287 287 287 285 283 283 285 286 286 287 289 291 293 295 296 296 294 293 293 293 294 295 297 298 298 298 297 296 295 294 292 290 290 291 293 294 296 297 299 300 299 299 300 303 307 309 309 308 307 305 303 300 299 299 300 299 299 301 304 306 308 309 310 310 308
286 286 286 287 287 288 288 290 291 291 292 292 293 294 295 294 294 293 292 291 290 288 286 285 284 283 283 283 284 284 285 286 287 289 291 293 295 295 295 295 296 298 299 300 300 301 301 300 299 297 294 292 291 291 292 293 295 297 298 298 297 296 296 298 302 305 307 306 305 304 302 301 300 299 298 295 292 292 295 299 302 304 305 307 309 308
287 286 286 286 286 286 287 288 289 289 290 290 291 292 293 293 293 292 291 291 290 288 286 284 284 283 283 282 283 283 284 284 285 286 288 291 293 294 295 296 297 298 299 300 300 301 301 300 298 296 293 290 288 288 290 292 294 296 296 295 294 294 295 297 300 303 304 303 302 301 300 300 300 299 296 293 291 291 293 295 297 298 301 304 306 306
286 286 286 286 285 285 286 286 287 287 287 287 287 288 288 288 288 288 287 287 286 285 284 283 283 282 282 281 281 281 282 282 283 285 287 290 291 292 293 293 292 292 293 294 295 295 294 294 293 291 289 288 287 287 287 288 290 292 291 291 292 293 294 296 298 299 299 297 296 296 297 297 298 297 294 293 293 294 294 294 293 293 296 299 301 301
Height
1552 1551 1551 1550 1549 1548 1548 1547 1546 1545 1544 1544 1543 1543 1543 1542 1542 1541 1541 1540 1539 1538 1537 1536 1536 1535 1534 1533 1532 1531 1531 1530 1529 1528 1527 1526 1525 1524 1523 1522 1521 1520 1519 1518 1517 1516 1515 1514 1513 1511 1510 1509 1508 1506 1505 1504 1502 1501 1500 1498 1497 1496 1495 1494 1493 1491 1491 1490 1489 1488 1486 1486 1486 1486 1485 1485 1485 1485 1486 1486 1487 1488 1488 1489 1489 1489
1551 1551 1550 1549 1548 1547 1546 1546 1545 1544 1543 1542 1541 1541 1541 1541 1540 1540 1539 1539 1538 1537 1536 1536 1535 1534 1533 1532 1531 1531 1530 1529 1528 1527 1526 1525 1524 1523 1522 1521 1520 1519 1518 1517 1516 1515 1514 1513 1512 1511 1510 1508 1507 1506 1504 1503 1502 1500 1499 1498 1496 1496 1494 1493 1492 1491 1490 1489 1488 1487 1486 1485 1485 1484 1484 1484 1483 1483 1484 1484 1485 1486 1486 1486 1487 1487
1550 1549 1549 1548 1547 1546 1546 1545 1544 1543 1542 1541 1541 1540 1539 1539 1538 1538 1537 1537 1537 1536 1535 1535 1534 1533 1532 1531 1531 1530 1529 1528 1527 1526 1525 1524 1523 1522 1521 1521 1520 1518 1517 1516 1516 1514 1513 1512 1511 1510 1509 1508 1506 1505 1504 1502 1501 1500 1498 1497 1496 1495 1494 1493 1492 1491 1490 1489 1488 1487 1486 1485 1484 1484 1483 1483 1482 1482 1482 1483 1483 1484 1484 1485 1485 1485
1548 1548 1547 1547 1546 1546 1545 1544 1543 1542 1541 1540 1540 1539 1538 1537 1537 1536 1536 1536 1535 1535 1534 1534 1533 1532 1531 1530 1529 1529 1528 1527 1526 1525 1524 1523 1523 1522 1521 1520 1519 1518 1516 1516 1515 1513 1512 1511 1510 1509 1508 1507 1506 1505 1503 1502 1501 1499 1498 1497 1496 1495 1493 1492 1491 1491 1490 1489 1488 1487 1486 1485 1484 1483 1483 1482 1482 1482 1481 1481 1482 1482 1482 1482 1482 1482
1547 1547 1546 1546 1545 1544 1544 1543 1542 1541 1540 1539 1539 1538 1537 1536 1536 1535 1535 1534 1533 1533 1532 1532 1531 1531 1530 1529 1528 1527 1527 1526 1525 1524 1523 1523 1522 1521 1520 1519 1518 1517 1516 1515 1514 1512 1511 1510 1509 1508 1507 1506 1505 1504 1503 1501 1500 1499 1497 1496 1495 1494 1493 1492 1491 1490 1489 1488 1487 1486 1486 1485 1484 1483 1482 1482 1481 1481 1481 1480 1480 1480 1480 1480 1480 1480
1546 1546 1545 1545 1544 1543 1543 1542 1541 1540 1539 1538 1537 1536 1536 1535 1534 1533 1533 1532 1531 1531 1531 1530 1530 1529 1529 1528 1527 1526 1526 1525 1524 1523 1522 1522 1521 1520 1519 1518 1517 1516 1515 1514 1513 1512 1511 1509 1508 1507 1506 1505 1504 1503 1502 1501 1500 1498 1497 1496 1495 1494 1493 1492 1491 1489 1488 1487 1486 1486 1485 1484 1483 1482 1482 1481 1481 1480 1479 1479 1478 1478 1478 1478 1478 1478
1545 1545 1544 1544 1543 1542 1542 1541 1540 1539 1538 1536 1536 1535 1534 1533 1533 1532 1531 1531 1530 1529 1529 1529 1528 1528 1527 1526 1526 1525 1524 1524 1523 1522 1521 1521 1520 1519 1518 1517 1516 1516 1514 1513 1512 1511 1510 1509 1507 1506 1505 1504 1503 1502 1501 1500 1499 1498 1496 1495 1494 1493 1492 1491 1490 1489 1488 1487 1486 1485 1484 1484 1483 1482 1481 1481 1480 1479 1478 1477 1477 1476 1476 1476 1476 1476
1544 1544 1543 1543 1542 1541 1541 1540 1539 1538 1537 1536 1534 1533 1532 1532 1531 1531 1530 1529 1528 1528 1527 1526 1526 1526 1525 1525 1524 1523 1523 1522 1521 1521 1520 1519 1519 1518 1517 1516 1516 1515 1514 1513 1511 1510 1509 1508 1506 1505 1504 1503 1502 1501 1500 1499 1498 1497 1496 1495 1494 1493 1492 1491 1490 1489 1487 1486 1485 1484 1483 1482 1482 1481 1481 1480 1479 1478 1477 1476 1476 1475 1474 1474 1474 1475
1543 1543 1542 1542 1541 1540 1539 1539 1538 1538 1536 1535 1534 1532 1531 1530 1529 1529 1529 1528 1527 1526 1525 1524 1524 1523 1523 1522 1522 1521 1521 1520 1520 1519 1518 1518 1517 1516 1516 1515 1515 1514 1513 1512 1511 1510 1508 1507 1506 1505 1503 1502 1501 1500 1499 1498 1497 1496 1495 1494 1493 1492 1491 1490 1489 1488 1487 1486 1485 1483 1482 1481 1481 1480 1480 1479 1478 1477 1476 1476 1475 1474 1473 1473 1473 1473
1543 1542 1541 1541 1541 1540 1539 1538 1537 1537 1536 1535 1534 1533 1531 1529 1528 1526 1526 1526 1525 1525 1524 1523 1521 1521 1520 1520 1520 1519 1519 1519 1518 1518 1517 1516 1516 1515 1515 1514 1513 1513 1512 1511 1510 1509 1508 1506 1505 1504 1503 1501 1500 1499 1498 1497 1496 1495 1494 1493 1492 1491 1490 1489 1488 1487 1486 1485 1484 1483 1482 1481 1480 1479 1479 1478 1477 1476 1476 1475 1474 1473 1472 1472 1472 1472
1542 1541 1541 1540 1540 1539 1538 1537 1536 1536 1535 1535 1534 1533 1532 1530 1528 1526 1524 1523 1522 1522 1522 1521 1521 1520 1518 1518 1517 1517 1517 1516 1516 1516 1516 1515 1515 1514 1514 1513 1512 1512 1511 1510 1509 1508 1507 1506 1504 1503 1502 1501 1499 1498 1497 1496 1495 1494 1493 1492 1491 1490 1489 1488 1487 1486 1486 1484 1483 1482 1481 1480 1479 1478 1477 1477 1476 1475 1475 1474 1473 1472 1472 1471 1471 1471
1541 1540 1540 1539 1539 1538 1537 1537 1536 1535 1534 1533 1532 1531 1530 1529 1528 1526 1525 1523 1521 1521 1520 1520 1520 1519 1518 1517 1516 1515 1515 1514 1513 1513 1513 1513 1512 1512 1511 1511 1511 1510 1510 1509 1508 1507 1506 1505 1504 1502 1501 1500 1499 1497 1496 1495 1494 1492 1491 1491 1490 1489 1488 1487 1486 1485 1485 1484 1483 1481 1481 1480 1479 1477 1476 1476 1475 1474 1474 1473 1472 1471 1471 1470 1470 1470
1539 1539 1538 1538 1538 1537 1536 1536 1535 1534 1533 1532 1531 1529 1528 1528 1527 1526 1525 1524 1522 1521 1520 1519 1518 1518 1518 1516 1515 1514 1513 1512 1511 1511 1511 1510 1510 1509 1509 1508 1508 1508 1507 1507 1506 1506 1505 1504 1503 1502 1501 1499 1498 1496 1495 1494 1493 1491 1490 1489 1488 1487 1486 1486 1485 1484 1483 1483 1482 1481 1480 1479 1478 1477 1476 1475 1474 1473 1472 1472 1471 1471 1470 1470 1469 1469
1538 1538 1537 1537 1537 1536 1536 1535 1534 1533 1532 1531 1531 1530 1529 1528 1527 1526 1525 1523 1522 1521 1520 1518 1517 1517 1516 1516 1515 1513 1512 1511 1510 1509 1509 1508 1508 1507 1507 1506 1506 1506 1505 1505 1504 1504 1503 1502 1501 1501 1500 1499 1497 1496 1495 1493 1492 1491 1489 1488 1487 1486 1486 1485 1484 1483 1482 1481 1481 1480 1479 1478 1477 1476 1475 1474 1473 1472 1472 1471 1471 1470 1469 1469 1468 1468
1537 1537 1536 1536 1536 1535 1535 1534 1533 1532 1532 1531 1530 1529 1528 1527 1526 1525 1524 1522 1521 1520 1519 1517 1516 1516 1515 1515 1514 1512 1511 1510 1508 1506 1506 1506 1506 1506 1505 1505 1504 1504 1504 1503 1502 1502 1501 1501 1500 1499 1498 1497 1496 1495 1494 1492 1491 1490 1488 1487 1486 1485 1484 1483 1482 1482 1481 1480 1479 1479 1478 1477 1476 1475 1474 1473 1472 1471 1471 1470 1469 1469 1468 1468 1467 1467
1536 1536 1535 1535 1534 1534 1534 1533 1532 1531 1531 1530 1530 1529 1527 1526 1526 1525 1523 1522 1520 1519 1517 1516 1514 1512 1512 1513 1513 1512 1511 1509 1507 1505 1504 1503 1504 1504 1504 1503 1502 1502 1501 1501 1501 1500 1499 1499 1498 1497 1497 1496 1496 1495 1493 1492 1491 1489 1488 1486 1485 1484 1483 1482 1481 1480 1480 1479 1478 1477 1476 1476 1475 1474 1473 1473 1472 1471 1470 1469 1468 1468 1467 1467 1466 1466
1535 1535 1534 1533 1533 1533 1532 1532 1531 1531 1530 1529 1528 1528 1527 1526 1525 1524 1523 1521 1520 1518 1517 1516 1514 1511 1510 1509 1511 1511 1511 1508 1506 1504 1503 1502 1502 1502 1502 1501 1501 1500 1499 1499 1499 1498 1497 1496 1496 1496 1495 1495 1494 1494 1492 1491 1490 1489 1487 1486 1485 1483 1482 1481 1480 1479 1478 1478 1477 1476 1475 1475 1474 1473 1472 1471 1471 1470 1469 1468 1467 1466 1466 1465 1465 1464
1534 1533 1533 1532 1532 1531 1531 1531 1531 1530 1529 1528 1527 1526 1526 1525 1524 1523 1522 1521 1520 1518 1517 1516 1515 1513 1511 1508 1508 1509 1510 1508 1505 1503 1501 1500 1500 1501 1501 1500 1499 1498 1498 1497 1497 1496 1496 1495 1494 1494 1493 1493 1493 1492 1491 1491 1490 1488 1487 1485 1484 1482 1481 1480 1478 1477 1477 1476 1476 1475 1474 1473 1472 1472 1471 1470 1469 1469 1468 1467 1466 1465 1464 1464 1463 1463
1532 1532 1532 1531 1531 1530 1530 1530 1529 1528 1527 1526 1526 1525 1524 1523 1523 1522 1521 1521 1519 1518 1517 1516 1514 1513 1512 1510 1508 1509 1509 1508 1506 1503 1501 1499 1498 1499 1499 1498 1497 1496 1496 1496 1495 1495 1494 1493 1492 1492 1492 1491 1491 1491 1490 1489 1488 1487 1486 1485 1483 1482 1480 1479 1477 1476 1475 1475 1474 1474 1473 1472 1471 1471 1470 1469 1468 1467 1466 1466 1465 1464 1463 1462 1461 1461
1531 1531 1531 1530 1529 1529 1528 1528 1528 1527 1526 1526 1524 1523 1522 1521 1521 1521 1520 1519 1518 1517 1516 1515 1513 1512 1511 1509 1508 1508 1508 1507 1505 1502 1500 1498 1497 1497 1498 1497 1496 1494 1494 1493 1493 1493 1492 1491 1491 1490 1490 1490 1489 1489 1488 1487 1487 1486 1485 1484 1482 1481 1480 1478 1476 1475 1474 1473 1472 1472 1471 1471 1470 1469 1468 1467 1467 1466 1465 1464 1463 1463 1462 1461 1460 1459
1530 1530 1530 1529 1528 1527 1527 1527 1527 1526 1526 1525 1523 1522 1521 1520 1519 1519 1518 1517 1516 1515 1515 1513 1512 1511 1510 1509 1507 1507 1507 1507 1505 1502 1499 1497 1496 1496 1496 1496 1494 1493 1491 1491 1491 1491 1490 1489 1489 1488 1488 1487 1487 1486 1486 1485 1485 1484 1484 1483 1481 1480 1479 1477 1476 1474 1472 1471 1471 1470 1470 1469 1468 1467 1466 1466 1465 1465 1464 1463 1462 1461 1460 1460 1459 1458
1529 1528 1528 1528 1527 1527 1526 1526 1526 1526 1525 1524 1523 1521 1520 1519 1518 1517 1516 1516 1515 1514 1513 1512 1511 1510 1509 1508 1506 1506 1506 1506 1505 1503 1500 1496 1494 1493 1495 1495 1493 1491 1490 1489 1489 1489 1488 1487 1487 1486 1486 1486 1485 1485 1484 1483 1483 1482 1482 1481 1480 1479 1478 1476 1475 1473 1472 1470 1469 1468 1468 1467 1467 1466 1465 1464 1463 1463 1462 1461 1461 1460 1459 1458 1457 1456
1528 1527 1527 1527 1526 1526 1525 1525 1525 1524 1524 1523 1522 1521 1520 1519 1517 1516 1515 1514 1513 1512 1511 1510 1509 1508 1507 1506 1506 1505 1505 1505 1504 1503 1500 1497 1493 1492 1493 1493 1492 1490 1488 1488 1487 1486 1486 1485 1485 1484 1484 1484 1483 1483 1482 1481 1481 1480 1480 1479 1478 1478 1476 1475 1474 1472 1471 1469 1468 1466 1466 1466 1465 1465 1464 1462 1461 1461 1460 1460 1459 1458 1457 1456 1456 1455
1526 1526 1526 1526 1526 1525 1524 1524 1523 1523 1522 1522 1521 1520 1519 1518 1517 1516 1515 1514 1513 1511 1510 1509 1507 1506 1506 1506 1505 1505 1504 1504 1504 1502 1500 1497 1493 1491 1491 1491 1490 1488 1486 1486 1486 1485 1483 1482 1482 1482 1482 1481 1481 1481 1480 1479 1478 1478 1477 1477 1476 1476 1475 1474 1473 1471 1470 1468 1467 1466 1464 1464 1463 1463 1462 1461 1460 1459 1458 1457 1457 1456 1455 1454 1454 1453
1525 1525 1525 1524 1524 1524 1523 1522 1522 1521 1521 1520 1519 1518 1517 1516 1516 1514 1514 1513 1512 1511 1509 1508 1506 1505 1504 1504 1503 1503 1502 1503 1502 1501 1499 1496 1493 1491 1490 1491 1490 1487 1485 1484 1483 1483 1481 1480 1480 1480 1480 1479 1479 1479 1478 1477 1476 1476 1475 1475 1474 1473 1473 1472 1471 1470 1469 1467 1466 1464 1463 1462 1461 1461 1460 1460 1458 1457 1456 1455 1454 1454 1453 1452 1451 1451
1524 1523 1523 1523 1523 1522 1522 1521 1521 1520 1520 1519 1518 1517 1516 1515 1514 1513 1512 1512 1511 1510 1508 1506 1505 1503 1503 1502 1501 1501 1501 1501 1501 1500 1498 1496 1492 1490 1489 1489 1489 1487 1484 1482 1481 1481 1480 1478 1477 1477 1477 1476 1476 1476 1476 1475 1474 1474 1473 1472 1472 1471 1471 1470 1469 1468 1467 1466 1465 1463 1462 1461 1460 1459 1458 1458 1457 1456 1454 1453 1452 1451 1450 1450 1449 1449
1522 1522 1521 1521 1521 1521 1520 1520 1520 1519 1519 1518 1517 1516 1515 1514 1512 1511 1511 1510 1510 1508 1506 1504 1503 1501 1501 1500 1500 1499 1499 1499 1499 1498 1497 1496 1492 1490 1488 1488 1488 1486 1484 1481 1480 1480 1479 1477 1475 1474 1474 1474 1474 1474 1473 1473 1472 1472 1471 1471 1470 1469 1468 1468 1467 1466 1465 1464 1463 1462 1461 1459 1458 1457 1456 1456 1455 1454 1453 1451 1450 1448 1447 1446 1446 1446
1521 1520 1520 1520 1519 1519 1519 1518 1518 1518 1517 1517 1516 1515 1514 1513 1511 1510 1509 1508 1508 1506 1505 1503 1502 1500 1499 1498 1497 1497 1497 1497 1497 1497 1496 1495 1492 1490 1488 1488 1487 1486 1484 1481 1478 1477 1478 1476 1475 1473 1472 1472 1472 1471 1471 1471 1470 1470 1469 1469 1468 1467 1467 1466 1465 1464 1463 1462 1461 1460 1459 1458 1456 1455 1454 1454 1453 1452 1451 1450 1448 1446 1445 1444 1443 1442
1519 1519 1518 1518 1518 1517 1517 1517 1516 1516 1516 1515 1515 1514 1513 1511 1510 1508 1507 1507 1506 1505 1503 1502 1501 1500 1498 1496 1495 1495 1495 1496 1496 1496 1495 1494 1491 1489 1488 1487 1486 1485 1484 1481 1477 1475 1475 1475 1475 1474 1472 1471 1471 1470 1469 1468 1468 1467 1467 1466 1466 1466 1465 1464 1463 1462 1461 1461 1460 1459 1458 1456 1455 1454 1453 1452 1451 1451 1450 1448 1446 1444 1442 1441 1440 1439
1517 1517 1516 1516 1516 1516 1515 1515 1514 1514 1514 1513 1513 1512 1511 1510 1509 1507 1506 1505 1505 1503 1501 1500 1499 1498 1497 1495 1493 1492 1492 1494 1495 1495 1494 1492 1490 1488 1487 1486 1486 1485 1485 1482 1477 1474 1471 1472 1473 1474 1472 1471 1469 1468 1467 1466 1466 1465 1464 1464 1463 1463 1463 1462 1461 1460 1459 1459 1458 1457 1456 1455 1454 1452 1451 1450 1450 1449 1448 1447 1445 1443 1441 1439 1438 1437
1515 1515 1514 1514 1514 1514 1513 1513 1512 1512 1512 1511 1511 1510 1509 1508 1507 1506 1505 1504 1503 1502 1500 1499 1498 1497 1496 1495 1493 1491 1490 1491 1492 1493 1492 1491 1489 1487 1487 1486 1484 1484 1484 1484 1481 1476 1470 1467 1468 1471 1471 1470 1468 1466 1466 1465 1464 1463 1462 1461 1461 1460 1460 1460 1459 1458 1457 1456 1456 1455 1454 1453 1452 1451 1450 1449 1448 1447 1446 1445 1444 1442 1440 1438 1436 1435
1512 1512 1512 1511 1511 1511 1511 1511 1510 1510 1510 1509 1509 1508 1507 1506 1506 1505 1504 1503 1501 1500 1499 1498 1496 1496 1495 1494 1493 1491 1489 1489 1490 1491 1491 1490 1487 1486 1486 1485 1483 1482 1482 1483 1482 1480 1474 1468 1465 1466 1468 1468 1466 1465 1464 1463 1463 1462 1461 1460 1459 1458 1458 1457 1456 1456 1455 1454 1453 1453 1452 1451 1450 1449 1448 1447 1446 1445 1444 1444 1443 1441 1439 1436 1435 1433
1510 1510 1509 1509 1509 1509 1508 1508 1508 1507 1507 1506 1506 1506 1505 1505 1504 1503 1502 1501 1500 1499 1498 1496 1495 1494 1493 1492 1491 1490 1488 1488 1489 1490 1490 1488 1486 1484 1483 1483 1482 1480 1480 1480 1480 1479 1476 1471 1467 1465 1465 1465 1465 1464 1463 1462 1461 1461 1460 1459 1457 1456 1456 1455 1455 1453 1452 1451 1451 1450 1450 1449 1448 1448 1446 1446 1444 1443 1442 1442 1441 1440 1438 1436 1433 1431
1508 1507 1507 1507 1507 1506 1506 1506 1506 1505 1505 1504 1504 1503 1503 1502 1501 1501 1500 1499 1498 1497 1496 1495 1494 1493 1491 1490 1489 1487 1486 1487 1488 1488 1488 1487 1485 1483 1481 1481 1480 1479 1478 1477 1476 1476 1474 1471 1468 1466 1463 1461 1462 1463 1462 1461 1460 1459 1459 1458 1456 1455 1454 1454 1453 1452 1451 1450 1448 1447 1447 1446 1446 1445 1444 1443 1442 1441 1440 1439 1439 1438 1437 1435 1433 1431
1505 1505 1505 1505 1504 1504 1504 1504 1503 1503 1502 1502 1501 1501 1500 1500 1499 1498 1498 1497 1496 1496 1495 1494 1492 1491 1490 1489 1487 1485 1484 1485 1486 1487 1486 1485 1483 1481 1480 1478 1478 1478 1477 1475 1474 1473 1471 1468 1467 1466 1464 1460 1459 1459 1461 1460 1459 1458 1457 1457 1456 1455 1453 1452 1451 1450 1449 1448 1446 1445 1444 1444 1443 1442 1441 1441 1440 1439 1438 1437 1436 1436 1435 1434 1432 1431
1503 1503 1503 1503 1502 1502 1501 1501 1501 1501 1500 1500 1499 1499 1498 1497 1496 1496 1496 1495 1494 1493 1492 1491 1491 1490 1489 1487 1486 1484 1482 1482 1483 1484 1484 1483 1482 1481 1478 1476 1476 1476 1476 1473 1472 1471 1470 1466 1464 1464 1463 1460 1457 1456 1456 1458 1458 1457 1456 1455 1454 1453 1452 1451 1451 1449 1447 1446 1444 1443 1442 1441 1440 1439 1438 1438 1437 1436 1436 1435 1434 1433 1433 1432 1431 1430
1501 1501 1501 1501 1501 1500 1499 1499 1498 1498 1498 1497 1496 1496 1496 1495 1494 1493 1493 1492 1491 1491 1490 1489 1488 1487 1486 1485 1484 1483 1481 1481 1481 1481 1481 1481 1480 1479 1477 1475 1474 1474 1474 1472 1470 1469 1468 1465 1462 1461 1461 1460 1457 1455 1454 1454 1455 1454 1453 1452 1452 1451 1450 1449 1449 1448 1446 1445 1443 1441 1440 1439 1437 1436 1436 1435 1435 1434 1433 1433 1432 1431 1430 1429 1428 1428
1499 1499 1498 1498 1498 1498 1497 1496 1496 1496 1495 1495 1494 1493 1493 1492 1491 1491 1490 1490 1489 1488 1487 1486 1485 1485 1484 1483 1482 1481 1480 1479 1478 1478 1478 1478 1477 1476 1475 1473 1472 1472 1472 1471 1469 1467 1466 1464 1461 1459 1457 1456 1456 1455 1453 1452 1451 1451 1449 1449 1449 1448 1447 1446 1446 1446 1445 1444 1442 1441 1439 1438 1436 1435 1433 1432 1431 1431 1430 1429 1429 1428 1428 1426 1426 1425
1497 1496 1496 1496 1496 1495 1495 1494 1493 1493 1492 1492 1491 1491 1490 1489 1489 1488 1487 1487 1486 1485 1484 1483 1482 1481 1481 1480 1479 1478 1478 1477 1476 1476 1476 1475 1475 1474 1473 1471 1469 1469 1469 1468 1467 1466 1464 1462 1461 1459 1456 1455 1453 1451 1451 1451 1450 1448 1447 1446 1446 1445 1445 1445 1445 1444 1443 1442 1441 1439 1438 1436 1435 1433 1431 1430 1429 1428 1427 1426 1425 1425 1425 1423 1422 1421
1495 1494 1494 1494 1493 1493 1492 1491 1491 1491 1490 1489 1488 1488 1487 1487 1486 1486 1485 1484 1484 1483 1482 1481 1480 1479 1478 1477 1477 1476 1476 1475 1475 1474 1474 1473 1472 1472 1471 1469 1468 1466 1466 1466 1465 1464 1463 1461 1459 1457 1456 1454 1452 1450 1449 1448 1448 1447 1447 1445 1443 1443 1443 1444 1443 1441 1441 1440 1439 1438 1436 1434 1433 1432 1430 1428 1427 1426 1424 1423 1422 1422 1422 1421 1419 1418
1493 1492 1491 1491 1491 1491 1490 1489 1489 1488 1488 1487 1486 1485 1485 1484 1484 1483 1482 1481 1481 1480 1479 1478 1477 1476 1475 1475 1474 1474 1473 1473 1472 1472 1471 1471 1470 1470 1469 1467 1466 1465 1464 1463 1462 1461 1460 1459 1457 1455 1454 1453 1451 1449 1447 1446 1446 1446 1446 1445 1442 1441 1441 1441 1440 1439 1438 1437 1436 1435 1434 1432 1431 1430 1428 1427 1426 1424 1423 1422 1421 1419 1419 1418 1418 1416
1491 1490 1490 1489 1489 1489 1488 1487 1487 1486 1485 1485 1484 1483 1482 1482 1481 1480 1479 1478 1477 1477 1476 1476 1474 1473 1471 1471 1471 1471 1471 1471 1471 1470 1469 1469 1468 1467 1466 1465 1464 1463 1462 1461 1459 1458 1457 1457 1456 1454 1452 1451 1450 1447 1445 1443 1444 1445 1445 1443 1441 1439 1438 1437 1437 1437 1436 1434 1433 1432 1431 1430 1429 1427 1426 1425 1424 1422 1421 1421 1419 1418 1417 1416 1415 1415
1489 1488 1488 1487 1487 1486 1486 1485 1484 1483 1483 1482 1481 1480 1480 1480 1479 1478 1477 1476 1475 1474 1474 1473 1472 1471 1469 1468 1467 1468 1469 1469 1468 1468 1467 1466 1466 1465 1464 1463 1462 1461 1460 1458 1457 1455 1455 1455 1454 1452 1450 1450 1449 1446 1444 1442 1442 1442 1442 1441 1441 1439 1436 1433 1433 1435 1434 1432 1431 1430 1429 1428 1427 1425 1424 1423 1422 1421 1420 1419 1418 1416 1415 1414 1413 1412
1486 1486 1486 1485 1485 1484 1483 1482 1482 1481 1481 1480 1479 1478 1478 1477 1477 1476 1475 1474 1473 1472 1471 1471 1470 1469 1467 1465 1464 1464 1465 1465 1465 1465 1465 1464 1463 1462 1461 1460 1459 1458 1458 1456 1455 1454 1452 1451 1451 1450 1449 1448 1447 1445 1443 1441 1441 1440 1439 1438 1439 1438 1435 1433 1432 1432 1431 1430 1429 1428 1428 1426 1425 1423 1422 1421 1420 1418 1418 1417 1416 1415 1414 1412 1411 1410
1484 1483 1483 1483 1482 1481 1481 1480 1480 1479 1478 1478 1477 1476 1476 1476 1475 1474 1473 1472 1471 1470 1469 1469 1468 1467 1465 1463 1462 1462 1461 1461 1461 1461 1461 1461 1461 1460 1459 1458 1457 1456 1455 1454 1453 1452 1451 1449 1448 1447 1447 1446 1445 1443 1441 1440 1438 1437 1436 1436 1436 1435 1433 1431 1431 1430 1429 1427 1426 1426 1425 1424 1423 1421 1419 1418 1417 1416 1416 1415 1414 1413 1411 1411 1410 1408
1481 1481 1481 1480 1480 1479 1478 1478 1477 1477 1476 1475 1474 1474 1474 1473 1473 1472 1471 1470 1469 1468 1467 1467 1467 1466 1463 1461 1461 1460 1459 1457 1457 1457 1458 1458 1457 1457 1456 1455 1455 1454 1453 1452 1451 1451 1450 1448 1446 1445 1444 1443 1442 1440 1439 1438 1436 1435 1433 1433 1433 1432 1430 1429 1428 1428 1427 1426 1424 1423 1422 1422 1421 1419 1417 1416 1415 1414 1413 1413 1412 1411 1410 1409 1408 1406
1479 1479 1478 1478 1477 1476 1476 1476 1475 1474 1473 1472 1472 1471 1471 1471 1470 1469 1468 1468 1467 1466 1465 1465 1464 1463 1461 1460 1459 1458 1457 1455 1454 1453 1454 1454 1454 1453 1453 1452 1452 1451 1451 1450 1449 1447 1446 1445 1444 1443 1442 1441 1438 1436 1435 1435 1435 1433 1431 1430 1430 1429 1427 1426 1426 1426 1425 1424 1422 1421 1420 1420 1419 1417 1416 1414 1413 1412 1411 1410 1409 1409 1408 1407 1406 1404
1477 1476 1476 1475 1475 1474 1473 1473 1472 1472 1471 1470 1469 1468 1468 1468 1467 1467 1466 1465 1465 1464 1463 1462 1461 1461 1459 1458 1457 1456 1456 1454 1452 1451 1451 1451 1450 1450 1450 1449 1449 1448 1447 1446 1446 1444 1443 1442 1441 1441 1440 1438 1436 1433 1431 1431 1431 1431 1429 1428 1428 1427 1425 1423 1423 1423 1423 1421 1420 1419 1419 1419 1417 1416 1414 1412 1411 1409 1408 1407 1406 1406 1406 1405 1404 1402
1474 1474 1473 1473 1472 1471 1471 1470 1470 1469 1468 1467 1466 1466 1465 1465 1465 1464 1463 1462 1461 1461 1461 1460 1459 1458 1457 1456 1455 1454 1453 1452 1451 1450 1449 1448 1447 1447 1446 1446 1445 1445 1443 1442 1441 1441 1439 1438 1437 1437 1436 1436 1434 1431 1429 1429 1429 1429 1427 1426 1426 1425 1423 1421 1421 1421 1420 1419 1418 1417 1417 1416 1415 1414 1413 1411 1409 1407 1406 1405 1404 1403 1402 1402 1401 1400
1471 1471 1471 1470 1470 1469 1468 1468 1467 1467 1466 1465 1464 1463 1463 1462 1461 1461 1460 1460 1459 1458 1458 1457 1456 1456 1454 1453 1452 1452 1451 1450 1449 1447 1446 1446 1445 1445 1444 1443 1442 1442 1441 1439 1438 1438 1437 1435 1434 1433 1433 1433 1432 1431 1428 1426 1426 1426 1426 1424 1423 1422 1421 1420 1418 1418 1418 1417 1416 1415 1414 1414 1413 1412 1411 1410 1407 1405 1404 1403 1402 1401 1400 1399 1399 1397
1469 1468 1468 1467 1467 1466 1466 1465 1465 1464 1464 1463 1462 1462 1461 1460 1459 1459 1458 1458 1457 1456 1456 1455 1454 1453 1452 1451 1450 1449 1449 1448 1447 1445 1443 1443 1443 1443 1441 1441 1441 1440 1439 1437 1436 1436 1435 1434 1431 1429 1429 1430 1431 1430 1428 1426 1425 1425 1423 1422 1421 1421 1420 1418 1416 1416 1415 1415 1413 1413 1412 1411 1411 1410 1410 1409 1406 1404 1402 1401 1400 1399 1398 1397 1396 1395